Regional Weather Roundup
Issued by NWS Upton, NY

Current Version | Previous Version | Text Only | Print | Product List | Glossary On
Versions: 1 2 3 4 5 6 7 8 9 10 11 12 13 14 15 16 17 18 19 20 21 22 23 24 25 26 27 28 29 30 31 32 33 34 35 36 37 38 39 40 41 42 43 44 45 46 47 48 49 50
000
ASUS41 KOKX 292305
RWROKX

REGIONAL WEATHER ROUNDUP
NATIONAL WEATHER SERVICE NEW YORK NY
700 PM EDT FRI AUG 29 2014

NOTE: "FAIR" INDICATES FEW OR NO CLOUDS BELOW 12,000 FEET WITH NO
SIGNIFICANT WEATHER AND/OR OBSTRUCTIONS TO VISIBILITY.

NYZ071-072-176-178-NJZ106-104-300000-
NEW YORK CITY METRO AREA


CITY           SKY/WX    TMP DP  RH WIND       PRES   REMARKS
CENTRAL PARK   PTCLDY    72  52  49 VRB3      30.22R
LAGUARDIA APRT MOCLDY    72  53  51 S14       30.19R
KENNEDY INTL   MOCLDY    71  54  54 SE9       30.21R
NEWARK/LIBERTY MOCLDY    73  53  49 SE9G16    30.19R
BRNX BOT. GARD   N/A     70  54  56 S10       30.22R
TETERBORO      PTCLDY    74  52  46 S10       30.17R
$$

NYZ177-179-078>081-300000-
LONG ISLAND NEW YORK

CITY           SKY/WX    TMP DP  RH WIND       PRES   REMARKS
FARMINGDALE    CLEAR     68  52  56 S9        30.21R
ISLIP          MOCLDY    69  54  58 S8        30.19R
SHIRLEY        CLEAR     69  53  56 S7        30.22R
WESTHAMPTON    CLEAR     69  55  60 S5        30.23R
MONTAUK POINT    N/A     68  56  65 VRB3      30.24R
$$

NYZ052-065-067-300000-
HUDSON VALLEY

CITY           SKY/WX    TMP DP  RH WIND       PRES   REMARKS
WHITE PLAINS   PTCLDY    71  52  50 SE7       30.19R
NEWBURGH       PTCLDY    73  54  49 VRB6      30.19S
MONTGOMERY     CLEAR     72  52  49 E5        30.18R
POUGHKEEPSIE   CLEAR     72  57  59 SE3       30.17R
ALBANY         PTCLDY    74  55  51 N5        30.17S
$$

NJZ001-105-106-008-010-013-015-019>022-104-300000-
NEW JERSEY

CITY           SKY/WX    TMP DP  RH WIND       PRES   REMARKS
NEWARK/LIBERTY MOCLDY    73  53  49 SE9G16    30.19R
TETERBORO      PTCLDY    74  52  46 S10       30.17R
CALDWELL       PTCLDY    73  51  46 S12       30.18R
MORRISTOWN     CLEAR     73  52  46 SE7       30.18R
SOMERVILLE     MOCLDY    74  55  51 SE8       30.16R
LINDEN         FAIR      77  54  45 S9        30.21R
SUSSEX         PTCLDY    73  60  63 CALM      30.17S
ANDOVER          N/A     70  58  65 CALM      30.19R
TRENTON        MOCLDY    72  56  57 SE10      30.18R
MILLVILLE      PTCLDY    71  59  65 SE7       30.19R
ATLANTIC CITY  MOCLDY    69  58  67 E7        30.20R
WRIGHTSTOWN    MOCLDY    70  57  62 SE10      30.18R
TOMS RIVER     MOCLDY    70  57  64 CALM      30.20S
BELMAR         PTCLDY    70  52  52 S5        30.20S
$$

PAZ047>061-062-071-300000-
EASTERN PENNSYLVANIA

CITY           SKY/WX    TMP DP  RH WIND       PRES   REMARKS
PHILADELPHIA   MOCLDY    77  50  38 SE6       30.17S
ALLENTOWN      PTCLDY    77  50  38 E3        30.17S
SCRANTON       PTCLDY    75  50  41 CALM      30.17S
$$

CTZ002-004>006-009-010-012-RIZ004-006-007-MAZ004-011-015-300000-
SOUTHERN NEW ENGLAND
 IN CT

CITY           SKY/WX    TMP DP  RH WIND       PRES   REMARKS
BRADLEY INTL   PTCLDY    74  52  46 SE5       30.18R
HARTFORD       CLEAR     72  55  55 S7        30.19R
DANBURY        CLEAR     69  53  56 S6        30.21R
WTRBRY/OXFORD  CLEAR     68  52  56 S9        30.23R
BRIDGEPORT     CLEAR     72  58  61 S8        30.20R
MERIDEN        CLEAR     71  52  50 S6        30.20R
NEW HAVEN      PTCLDY    73  53  49 SE6       30.21R
CHESTER        FAIR      70  54  56 SE5       30.22R
GROTON         CLEAR     67  56  67 SE7       30.22R
WILLIMANTIC    CLEAR     70  54  56 S7        30.21R

 IN RI

CITY           SKY/WX    TMP DP  RH WIND       PRES   REMARKS
PROVIDENCE     PTCLDY    69  56  62 S6        30.22R
BLOCK ISLAND   CLEAR     66  55  68 SE6       30.23R
WESTERLY       PTCLDY    69  56  62 S7        30.23R

 IN MA

CITY           SKY/WX    TMP DP  RH WIND       PRES   REMARKS
BOSTON         PTCLDY    64  54  69 E12       30.23R
WORCESTER      PTCLDY    69  52  54 SW5       30.22S
WESTFIELD      CLEAR     74  53  48 W3        30.19R
PROVINCETOWN   CLEAR     63  54  72 E6        30.24R
NANTUCKET      CLEAR     63  54  72 NE6       30.23R
$$

ANZ330-335-338-340-345-350-353-355-300000-
COASTAL MARINE OBSERVATIONS


STATION/POSITION TIME  SKY/WX   TEMP    WIND        PRES    VSBY  WAVE
                                AIR SEA DIR/SP/G                  HT/PER
                 (UTC)          (F)     (DEG/KT/KT) (MB)    (MI)  (FT/S)
NY HARB ENTRANCE NOT AVBL
4S FIRE IS       NOT AVBL
23SW MTP         2300                                 N/A           3/ 9
HUDSON CANYON    2300            70 72   70/  6/  8 1022.6          4/ 9
EXECUTION ROCKS  2300            72 74  190/ 12/ 14   N/A
WESTERN LI SOUND 2300            73     160/ 12/ 16   N/A           1
CENTRAL LI SOUND 2200            72 73  160/ 10/ 12   N/A           0
EASTERN LI SOUND 2200            68 69  150/  8/ 12   N/A
ROBBINS REEF     2300            71     150/ 15/ 18   N/A
$$


>>>>>>>>>>>>>>>>>>>>>>>>>>>> KEY <<<<<<<<<<<<<<<<<<<<<<<<<<<
>                                                          <
>     SKY/WX - SKY CONDITION/PRESENT WEATHER               <
>     TMP    - TEMPERATURE IN FAHRENHEIT                   <
>     DP     - DEWPOINT IN FAHRENHEIT                      <
>     RH     - RELATIVE HUMIDITY IN PERCENT                <
>     WIND   - DIRECTION AND SPEED IN MPH                  <
>     PRES   - MEAN SEA LEVEL PRESSURE IN INCHES OF HG     <
>     WCI    - WIND CHILL INDEX                            <
>     VSB    - VISIBILITY IN MILES                         <
>     HX     - HEAT INDEX                                  <
>     TC     - TEMPERATURE IN CELSIUS                      <
>     VRB    - VARIABLE WIND DIRECTION                     <
>                                                          <
>>>>>>>>>>>>>>>>>>>>>>>>>>>> KEY <<<<<<<<<<<<<<<<<<<<<<<<<<<





USA.gov is the U.S. government's official web portal to all federal, state and local government web resources and services.